ABOUT US
vACC Philippines is a recognized member of the VATSIM network. We are dedicated to enchancing the online experience of both local and international virtual pilots. Mandated to provide professional and realistic air traffic operations.

vACC Philippines aims to provide the most realistic air traffic system simulation service that is close to the real thing as possible when flying on the VATSIM network.


METARS

RPLL 072200Z VRB02KT 9999 FEW023 26/21 Q1012 NOSIG RMK A2988


RPVM 072200Z 33002KT 9999 FEW018CB FEW020 BKN300 25/23 Q1011 RMK A2985


RPMD 072200Z 36005KT 330V030 9999 FEW016 BKN290 26/25 Q1010 RMK A2983



AIRFIELDS COVERED


Manila (RPLL)

Subic Bay (RPLB)

Mactan-Cebu (RPVM)

Clark (RPLC)

Laoag (RPLI)


Davao (RPMD)


Bacolod (RPVB)


Zamboanga (RPMZ)


General Santos (RPMR)


Iloilo (RPVI)


Kalibo (RPVK)


Legazpi (RPLP)


Puerto Princesa (RPVP)